When you browse on this site, cookies collect data to enhance your experience and personalize the content and advertising you see.
Visit our Privacy Policy to learn more. By continuing to use the site, you agree to this use of cookies and data.
  • In Romania
  • List of Countries
  • For 7 days
  • Water Temperature
  • Weather Map
  • Weather Widgets
  • user-avatar
    Login

    Hourly Weather Burgas

    Today, 20 January, Monday

    Time Temperature Precipitation Wind Pressure Humidity
    00:00 -1°C° 0 mm 6 mps 771 mmHg 88%
    01:00 -2°C° 0 mm 6 mps 772 mmHg 88%
    02:00 -2°C° 0 mm 6 mps 772 mmHg 89%
    03:00 -2°C° 0 mm 6 mps 773 mmHg 87%
    04:00 -2°C° 0 mm 6 mps 773 mmHg 86%
    05:00 -2°C° 0 mm 6 mps 773 mmHg 84%
    06:00 -2°C° 0 mm 6 mps 774 mmHg 84%
    07:00 -3°C° 0 mm 6 mps 774 mmHg 84%
    08:00 -3°C° 0 mm 6 mps 775 mmHg 83%
    09:00 -2°C° 0 mm 6 mps 775 mmHg 78%
    10:00 -2°C° 0 mm 6 mps 776 mmHg 72%
    11:00 -1°C° 0 mm 7 mps 776 mmHg 66%
    12:00 0°C° 0 mm 7 mps 777 mmHg 64%
    13:00 +1°C° 0 mm 6 mps 777 mmHg 62%
    14:00 +2°C° 0 mm 6 mps 777 mmHg 60%
    15:00 +1°C° 0 mm 6 mps 777 mmHg 63%
    16:00 0°C° 0 mm 5 mps 777 mmHg 67%
    17:00 0°C° 0 mm 5 mps 777 mmHg 70%
    18:00 -1°C° 0 mm 5 mps 778 mmHg 71%
    19:00 -1°C° 0 mm 4 mps 778 mmHg 72%
    20:00 -1°C° 0 mm 4 mps 779 mmHg 74%
    21:00 0°C° 0 mm 3 mps 779 mmHg 75%
    22:00 -1°C° 0 mm 3 mps 779 mmHg 77%
    23:00 -1°C° 0 mm 3 mps 779 mmHg 78%

    Tomorrow, 21 January, Tuesday

    Time Temperature Precipitation Wind Pressure Humidity
    00:00 -1°C° 0 mm 3 mps 779 mmHg 79%
    01:00 -1°C° 0 mm 3 mps 779 mmHg 79%
    02:00 -2°C° 0 mm 4 mps 779 mmHg 79%
    03:00 -1°C° 0 mm 3 mps 779 mmHg 80%
    04:00 -1°C° 0 mm 3 mps 778 mmHg 80%
    05:00 -1°C° 0 mm 3 mps 778 mmHg 81%
    06:00 -1°C° 0 mm 3 mps 778 mmHg 80%
    07:00 -1°C° 0 mm 3 mps 778 mmHg 80%
    08:00 -1°C° 0 mm 2 mps 778 mmHg 80%
    09:00 +1°C° 0 mm 2 mps 778 mmHg 72%
    10:00 +3°C° 0 mm 2 mps 778 mmHg 64%
    11:00 +4°C° 0 mm 3 mps 778 mmHg 56%
    12:00 +5°C° 0 mm 2 mps 777 mmHg 53%
    13:00 +6°C° 0 mm 2 mps 777 mmHg 51%
    14:00 +7°C° 0 mm 2 mps 776 mmHg 49%
    15:00 +6°C° 0 mm 2 mps 776 mmHg 53%
    16:00 +6°C° 0 mm 1 mps 776 mmHg 58%
    17:00 +5°C° 0 mm 1 mps 776 mmHg 63%
    18:00 +4°C° 0 mm 1 mps 776 mmHg 65%
    19:00 +3°C° 0 mm 1 mps 775 mmHg 67%
    20:00 +3°C° 0 mm 1 mps 775 mmHg 69%
    21:00 +2°C° 0 mm 1 mps 775 mmHg 70%
    22:00 +1°C° 0 mm 2 mps 775 mmHg 70%
    23:00 +1°C° 0 mm 2 mps 775 mmHg 71%

    Day after tomorrow, 22 January, Wednesday

    Time Temperature Precipitation Wind Pressure Humidity
    00:00 +1°C° 0 mm 2 mps 774 mmHg 70%
    01:00 +1°C° 0 mm 2 mps 774 mmHg 70%
    02:00 +1°C° 0 mm 2 mps 774 mmHg 70%
    03:00 +1°C° 0 mm 2 mps 773 mmHg 70%
    04:00 +1°C° 0 mm 2 mps 773 mmHg 70%
    05:00 -1°C° 0 mm 2 mps 772 mmHg 69%
    06:00 -1°C° 0 mm 2 mps 772 mmHg 69%
    07:00 -1°C° 0 mm 2 mps 772 mmHg 69%
    08:00 +1°C° 0 mm 2 mps 772 mmHg 68%
    09:00 +2°C° 0 mm 2 mps 771 mmHg 61%
    10:00 +4°C° 0 mm 2 mps 771 mmHg 54%
    11:00 +5°C° 0 mm 3 mps 770 mmHg 47%
    12:00 +7°C° 0 mm 3 mps 770 mmHg 45%
    13:00 +8°C° 0 mm 3 mps 769 mmHg 43%
    14:00 +9°C° 0 mm 3 mps 768 mmHg 42%
    15:00 +8°C° 0 mm 3 mps 767 mmHg 47%
    16:00 +7°C° 0 mm 3 mps 767 mmHg 52%
    17:00 +4°C° 0 mm 3 mps 766 mmHg 57%
    18:00 +4°C° 0 mm 3 mps 766 mmHg 58%
    19:00 +3°C° 0 mm 3 mps 765 mmHg 59%
    20:00 +1°C° 0 mm 4 mps 765 mmHg 60%
    21:00 +2°C° 0 mm 3 mps 765 mmHg 60%
    22:00 +2°C° 0 mm 3 mps 764 mmHg 60%
    23:00 +2°C° 0 mm 3 mps 764 mmHg 60%

    23 January, Thursday

    Time Temperature Precipitation Wind Pressure Humidity
    00:00 +1°C° 0 mm 3 mps 764 mmHg 59%
    01:00 +1°C° 0 mm 3 mps 764 mmHg 59%
    02:00 +1°C° 0 mm 3 mps 764 mmHg 58%
    03:00 +1°C° 0 mm 3 mps 764 mmHg 59%
    04:00 +1°C° 0 mm 3 mps 765 mmHg 60%
    05:00 0°C° 0 mm 3 mps 765 mmHg 61%
    06:00 0°C° 0 mm 3 mps 766 mmHg 63%
    07:00 0°C° 0 mm 3 mps 767 mmHg 65%
    08:00 +1°C° 0 mm 2 mps 768 mmHg 67%
    09:00 +1°C° 0 mm 3 mps 768 mmHg 62%
    10:00 +3°C° 0 mm 3 mps 769 mmHg 57%
    11:00 +5°C° 0 mm 3 mps 769 mmHg 52%
    12:00 +5°C° 0 mm 3 mps 769 mmHg 49%
    13:00 +6°C° 0 mm 4 mps 769 mmHg 47%
    14:00 +6°C° 0 mm 4 mps 770 mmHg 44%
    15:00 +5°C° 0 mm 4 mps 770 mmHg 47%
    16:00 +4°C° 0 mm 3 mps 770 mmHg 50%
    17:00 +3°C° 0 mm 3 mps 770 mmHg 53%
    18:00 +3°C° 0 mm 3 mps 771 mmHg 57%
    19:00 +2°C° 0 mm 3 mps 771 mmHg 61%
    20:00 +2°C° 0 mm 2 mps 772 mmHg 65%
    21:00 +2°C° 0 mm 2 mps 772 mmHg 68%
    22:00 +2°C° 0 mm 2 mps 773 mmHg 70%
    23:00 +2°C° 0 mm 2 mps 774 mmHg 72%

    24 January, Friday

    Time Temperature Precipitation Wind Pressure Humidity
    00:00 +1°C° 0 mm 2 mps 774 mmHg 73%
    01:00 +1°C° 0 mm 2 mps 774 mmHg 74%
    02:00 -1°C° 0 mm 2 mps 774 mmHg 75%
    03:00 +1°C° 0 mm 1 mps 773 mmHg 74%
    04:00 +1°C° 0 mm 1 mps 773 mmHg 74%
    05:00 +1°C° 0 mm 1 mps 773 mmHg 73%
    06:00 +1°C° 0 mm 1 mps 773 mmHg 72%
    07:00 +1°C° 0 mm 1 mps 773 mmHg 72%
    08:00 +1°C° 0 mm 1 mps 773 mmHg 71%
    09:00 +2°C° 0 mm 1 mps 773 mmHg 65%
    10:00 +3°C° 0 mm 2 mps 773 mmHg 58%
    11:00 +5°C° 0 mm 2 mps 773 mmHg 52%
    12:00 +5°C° 0 mm 3 mps 773 mmHg 51%
    13:00 +7°C° 0 mm 3 mps 772 mmHg 50%
    14:00 +6°C° 0 mm 4 mps 771 mmHg 48%
    15:00 +5°C° 0 mm 3 mps 771 mmHg 53%
    16:00 +4°C° 0 mm 3 mps 771 mmHg 57%
    17:00 +4°C° 0 mm 3 mps 771 mmHg 61%
    18:00 +3°C° 0 mm 3 mps 770 mmHg 64%
    19:00 +2°C° 0 mm 3 mps 770 mmHg 66%
    20:00 +1°C° 0 mm 3 mps 770 mmHg 68%
    21:00 +1°C° 0 mm 3 mps 770 mmHg 70%
    22:00 0°C° 0 mm 3 mps 770 mmHg 71%
    23:00 0°C° 0 mm 3 mps 769 mmHg 72%

    25 January, Saturday

    Time Temperature Precipitation Wind Pressure Humidity
    00:00 0°C° 0 mm 3 mps 769 mmHg 75%
    01:00 0°C° 0 mm 3 mps 768 mmHg 78%
    02:00 0°C° 0 mm 3 mps 768 mmHg 81%
    03:00 -1°C° 0 mm 3 mps 767 mmHg 83%
    04:00 -1°C° 0 mm 3 mps 767 mmHg 85%
    05:00 -1°C° 0 mm 3 mps 767 mmHg 87%
    06:00 -1°C° 0 mm 3 mps 767 mmHg 88%
    07:00 -1°C° 0 mm 3 mps 767 mmHg 89%
    08:00 -1°C° 0 mm 3 mps 766 mmHg 89%
    09:00 +1°C° 0 mm 3 mps 766 mmHg 81%
    10:00 +4°C° 0 mm 4 mps 766 mmHg 73%
    11:00 +6°C° 0 mm 5 mps 766 mmHg 65%
    12:00 +7°C° 0 mm 4 mps 766 mmHg 63%
    13:00 +7°C° 0 mm 4 mps 765 mmHg 61%
    14:00 +8°C° 0 mm 4 mps 764 mmHg 58%
    15:00 +7°C° 0 mm 4 mps 764 mmHg 63%
    16:00 +8°C° 0 mm 3 mps 764 mmHg 67%
    17:00 +7°C° 0 mm 3 mps 764 mmHg 71%
    18:00 +5°C° 0 mm 3 mps 764 mmHg 73%
    19:00 +5°C° 0 mm 3 mps 764 mmHg 75%
    20:00 +4°C° 0 mm 3 mps 765 mmHg 77%
    21:00 +4°C° 0 mm 3 mps 764 mmHg 77%
    22:00 +4°C° 0 mm 3 mps 764 mmHg 78%
    23:00 +4°C° 0 mm 3 mps 764 mmHg 78%
    Show more